Hourly Data Report for July 29, 2003

SHERBROOKE A
QUEBEC

45°26'00.000" N
71°41'00.000" W
241.40 m
7028124
71610
YSC

Download Data

Hourly Data (July 2003)
Hourly Data Report for July 29, 2003
TIME
LST
Temp Definition
°C
Dew Point Definition
°C
Rel Hum Definition
%
Precip. Amount Definition
mm

Wind Dir Definition
10's deg

Wind Spd Definition
km/h
Visibility Definition
km
Stn Press Definition
kPa
Hmdx Definition


Wind Chill Definition


Weather Definition


00:00 12.8 11.6 92   23 4 15.0 98.23      
01:00 11.2 10.1 93   12 4 15.0 98.24      
02:00 10.6 9.8 95   9 6 15.0 98.28      
03:00 10.0 9.3 95   3 6 1.0 98.26      
04:00 9.9 9.3 96   9 4 15.0 98.29      
05:00 9.7 9.0 95   14 4 15.0 98.36      
06:00 12.1 11.0 93   12 4 15.0 98.42      
07:00 15.9 13.4 85     0 24.1 98.46     Mainly Clear
08:00 17.4 13.4 77   23 9 24.1 98.50     Mainly Clear
09:00 19.4 14.3 72   24 9 24.1 98.54     Mainly Clear
10:00 20.8 13.4 63   27 6 24.1 98.57     Mainly Clear
11:00 20.9 13.1 61   22 9 24.1 98.58     Mostly Cloudy
12:00 21.6 13.5 60   25 4 24.1 98.58 25   Mainly Clear
13:00 23.5 13.7 54   29 11 24.1 98.57 27   Mainly Clear
14:00 23.2 14.5 58   30 11 24.1 98.59 27   Mainly Clear
15:00 23.6 12.9 51   29 9 24.1 98.60 26   Mainly Clear
16:00 23.3 12.2 50   32 4 24.1 98.63 26   Mainly Clear
17:00 23.3 12.5 51   23 4 15.0 98.64 26    
18:00 22.4 14.3 60   34 4 15.0 98.67 26    
19:00 18.1 14.8 81     0 15.0 98.73      
20:00 14.6 12.5 87   5 4 15.0 98.78      
21:00 14.0 12.8 92   8 6 15.0 98.84      
22:00 14.6 13.2 91   10 6 15.0 98.87      
23:00 13.9 12.7 92   8 7 15.0 98.89      

Notes on Data Quality.

Legend

  • E = Estimated
  • M = Missing
  • NA = Not Available*
  • [empty] = Indicates an unobserved value
Date modified: